Terminal Aerodrome Forecast
Issued by NWS Grand Junction, CO

Home | Current Version | Previous Version | Text Only | Print | Product List | Glossary On
Versions: 1 2 3 4 5 6 7 8 9 10 11 12 13 14 15 16 17 18 19 20 21 22 23 24 25 26 27 28 29 30 31 32 33 34 35 36 37 38 39 40 41 42 43 44 45 46 47 48 49 50
000
FTUS45 KGJT 240535
TAFGJT
TAF
KGJT 240535Z 2406/2506 11009KT P6SM VCSH SCT090 BKN120
     FM240800 11008KT P6SM VCSH SCT070 BKN100
     FM241800 31009KT P6SM VCTS SCT060CB BKN100
     FM250000 09005KT P6SM BKN080=

USA.gov is the U.S. government's official web portal to all federal, state and local government web resources and services.